User: anonymous   Login
Location: Unspecified
(0.0000°N, 0.0000°E)
Time: 19:29:41
(UTC+00:00)
Language:

STARLINK-30760 - Orbit

View from above orbital plane
View from above orbital plane
View from above satellite
View from above satellite

Ground track
Ground track

The orbit is defined by the following mean orbital elements,

1 58187U          26145.51308903 +.00000000 +00000-0 +89414-4 0 00009
2 58187  43.0045  69.5852 0000995 269.2918  90.7819 15.27579848    02
Epoch (UTC): 25 May 2026 12:18:50
Eccentricity: 0.0000995
inclination: 43.0045°
perigee height: 482 km
apogee height: 484 km
right ascension of ascending node: 69.5852°
argument of perigee: 269.2918°
revolutions per day: 15.27579848
mean anomaly at epoch: 90.7819°

The dashed part of the orbit path shows where the satellite is in the earth's shadow,  

DLR